RH
86 84 81 80 80 80 77 76 76 74 69 65 64 61 57 53 52 52 50 49 48 46 45 44 42 41 39 38 38 38 37 36 36 36 37 37 38 40 41 41 40 39 41 42 43 46 49 50 52 54 53 55 57 58 57 57 56 53 50 50 48 44 41 40 44 50 47 40 35 31 28 32 41 44 47 48 46 45 47 48 44 42 42 42 42
85 82 78 77 76 75 74 74 72 69 66 64 62 56 51 48 49 49 46 44 43 42 43 42 41 40 40 39 39 37 36 35 35 35 36 36 38 40 41 41 40 40 41 42 43 46 48 49 51 52 53 55 59 60 59 57 56 55 52 50 49 47 42 44 51 54 50 43 36 34 29 28 38 44 47 47 47 48 51 51 46 41 37 36 38
80 81 78 76 75 73 72 71 68 64 62 60 57 52 48 46 46 45 42 40 40 40 41 40 39 40 40 39 37 36 35 35 34 34 36 37 38 39 41 41 40 41 42 44 45 47 48 49 50 51 52 55 59 61 60 58 57 57 55 52 52 50 45 47 55 57 52 48 40 35 34 28 31 40 44 46 47 50 53 53 48 42 38 37 36
76 77 76 75 74 74 72 68 63 59 56 54 52 49 46 45 43 41 39 39 39 39 39 38 38 38 38 37 36 36 36 36 35 35 37 38 39 41 41 42 42 42 43 44 46 48 49 48 49 50 51 54 58 60 60 59 59 60 59 56 55 53 49 48 52 55 53 53 48 35 35 32 27 33 42 47 49 52 55 53 48 46 45 41 37
74 74 73 72 72 73 71 65 59 55 52 50 49 47 45 44 42 39 38 38 39 39 39 38 38 37 36 36 37 38 38 37 37 37 38 40 42 42 43 44 44 44 44 45 46 46 47 48 48 49 50 52 55 57 58 58 58 60 63 61 59 56 52 49 49 53 51 52 52 37 35 38 31 29 37 45 49 53 52 48 48 48 48 45 40
74 73 71 70 70 69 66 61 57 53 50 48 47 46 45 43 41 38 38 38 38 38 38 37 38 37 36 37 39 39 39 39 38 38 40 42 43 43 44 45 45 45 45 45 45 45 45 46 47 48 49 50 51 52 54 54 55 58 62 65 63 59 54 52 52 53 48 49 52 38 32 38 38 34 34 39 45 52 51 48 49 49 50 49 45
71 70 69 67 66 63 61 59 56 53 48 46 45 45 44 42 40 38 37 37 36 36 37 38 39 38 38 39 40 40 40 40 39 40 42 44 45 45 46 46 46 45 44 44 45 45 45 45 46 47 48 49 49 50 51 51 53 56 59 63 64 60 58 57 55 55 48 46 50 41 32 35 39 39 39 40 44 50 51 50 51 51 51 50 48
66 66 64 62 63 61 60 59 55 50 46 44 43 44 44 42 40 37 36 34 34 35 37 39 40 39 39 40 41 41 40 40 40 42 44 45 46 47 48 48 47 46 46 46 47 47 47 46 46 46 47 48 48 48 49 50 51 53 55 58 61 61 61 61 57 57 50 44 48 45 34 32 36 39 41 41 42 45 47 49 50 52 53 51 50
60 62 61 60 61 60 59 57 53 49 45 44 43 43 43 43 40 36 34 33 34 36 38 39 39 39 40 42 42 40 39 40 41 43 44 45 47 48 48 48 48 49 49 50 50 50 49 48 47 46 46 47 48 48 49 50 51 52 53 54 58 61 63 62 59 56 53 48 47 48 40 32 32 37 40 41 42 42 43 45 48 51 53 54 52
56 56 57 56 56 56 56 55 52 50 46 44 43 43 43 42 40 36 34 34 36 37 38 39 39 40 40 41 41 40 40 41 42 44 45 45 47 49 48 48 49 51 50 51 51 51 50 50 50 49 49 47 48 49 50 51 53 52 52 52 55 60 63 63 62 57 56 54 49 48 45 35 31 34 39 42 45 46 47 47 49 53 55 54 51
50 51 52 51 53 54 53 53 52 51 46 43 42 42 42 40 38 36 36 36 38 38 38 39 39 39 39 40 40 40 41 42 44 46 46 46 49 51 50 50 53 54 52 52 53 53 53 53 52 52 52 49 48 49 50 52 54 53 52 52 53 59 64 64 64 62 61 61 56 51 44 35 32 33 37 42 47 50 51 51 52 54 55 54 51
46 46 47 48 51 51 51 52 52 50 45 41 39 39 39 38 37 36 37 38 38 39 40 40 39 39 39 39 40 42 42 44 45 47 46 48 51 52 53 55 58 58 59 60 60 59 58 58 56 55 54 53 51 50 50 52 54 55 55 55 54 58 65 66 66 65 64 64 61 55 40 30 33 34 33 37 43 48 51 52 53 51 49 51 52
46 44 45 46 48 48 49 50 49 47 44 40 38 37 37 37 37 37 38 39 40 41 41 41 40 39 39 40 41 43 44 45 46 47 47 50 53 54 56 59 60 61 64 65 65 64 63 64 61 58 57 57 57 55 53 53 53 55 56 57 56 58 63 67 67 65 65 66 65 60 43 30 30 34 35 35 36 41 46 49 50 49 45 47 49
45 44 43 44 45 45 45 45 44 44 43 40 38 38 38 38 38 38 40 41 42 42 42 42 41 41 42 42 43 45 45 47 47 48 49 52 54 56 58 59 59 60 63 65 65 65 65 65 65 64 61 60 62 62 59 58 55 54 55 57 57 57 60 66 69 65 63 66 68 64 52 39 31 33 39 40 39 35 38 44 48 48 44 43 43
44 43 42 43 44 44 43 42 43 43 42 40 39 39 39 39 39 41 42 43 44 43 43 43 42 43 45 46 47 47 48 49 49 50 52 53 54 56 58 57 56 57 59 61 61 61 62 64 65 65 63 61 63 65 64 63 60 57 56 57 58 57 59 64 67 66 64 65 67 64 57 50 39 32 36 42 46 40 33 37 42 44 41 40 38
42 42 42 42 43 43 43 44 44 43 42 41 40 40 40 40 41 43 43 43 44 43 43 43 44 45 46 48 50 49 49 49 49 51 52 53 53 55 56 55 53 54 56 56 56 56 57 60 62 63 63 62 62 62 62 63 63 61 58 57 58 60 60 62 62 64 67 64 65 65 60 56 48 37 34 37 44 44 38 35 35 37 36 35 35
41 41 42 41 41 42 43 45 45 42 41 40 39 39 40 40 42 41 41 42 43 43 44 44 45 45 47 48 49 48 48 48 48 50 51 50 50 52 52 51 51 51 52 52 51 51 52 54 56 59 61 62 62 61 59 58 59 59 57 56 57 60 61 60 60 63 67 66 67 69 64 60 56 46 36 34 38 41 43 44 37 33 31 31 33
40 41 41 39 39 41 41 43 42 40 39 38 37 38 39 39 39 39 39 41 41 43 44 45 46 46 47 48 48 48 47 47 46 47 46 45 44 46 46 47 48 49 49 48 47 47 48 50 52 55 56 57 57 56 54 52 52 53 54 55 56 59 61 61 61 64 68 67 67 68 66 62 60 55 43 36 38 39 39 42 40 35 32 31 32
40 40 39 37 39 40 39 39 39 39 37 36 36 37 38 37 37 37 38 40 41 42 44 45 46 46 47 47 47 46 46 45 44 42 41 42 41 42 44 44 46 46 46 45 44 43 44 47 49 52 54 54 54 53 51 48 48 50 54 58 59 60 63 63 62 66 68 66 65 65 66 65 62 62 55 45 41 41 39 38 37 36 37 35 33
40 40 37 37 39 37 37 37 37 36 35 36 36 37 38 37 36 36 37 39 40 41 43 44 46 46 45 44 44 43 43 42 40 38 38 40 41 42 43 44 45 45 46 45 42 41 41 42 45 49 53 55 57 57 55 52 55 58 60 62 64 65 66 66 67 69 69 65 65 64 65 65 64 63 62 57 48 43 42 41 38 36 38 40 39
39 39 37 38 38 36 36 36 34 33 34 35 36 37 38 37 37 37 38 38 39 41 42 44 45 44 42 41 41 41 40 39 37 38 39 41 43 43 43 44 44 44 44 43 40 37 37 39 43 47 52 54 55 55 54 52 57 63 64 64 66 65 64 66 68 71 71 68 65 63 64 65 64 64 62 61 56 46 42 43 42 38 37 40 43
39 37 37 38 38 37 36 34 33 33 34 35 35 35 36 36 36 37 37 38 38 40 41 43 44 42 40 40 40 40 40 40 39 41 42 43 44 42 41 42 43 42 40 40 38 36 38 42 45 47 49 50 47 48 46 43 48 55 57 60 65 64 64 65 67 70 71 69 66 63 64 64 63 64 64 62 61 55 46 43 43 42 41 40 41
40 36 38 39 38 37 35 33 33 34 35 34 34 34 34 34 35 36 35 36 37 38 39 41 42 41 38 38 40 42 41 41 41 43 43 42 42 41 41 41 42 42 38 38 40 40 42 44 45 46 47 47 46 44 41 37 39 44 44 45 50 54 59 64 65 67 68 68 66 64 63 63 63 65 68 67 67 64 57 49 44 43 44 42 39
38 36 38 39 37 36 33 33 34 34 35 34 34 33 34 34 33 34 34 35 35 36 37 39 41 41 38 38 41 43 42 42 42 43 43 41 42 42 42 44 45 44 39 39 43 43 45 45 45 45 44 44 42 40 36 34 34 35 35 34 35 37 40 47 52 55 62 65 63 62 62 61 61 62 66 68 69 69 67 62 53 47 44 43 41
37 37 39 39 38 35 33 33 35 35 34 34 34 33 32 33 32 33 33 34 34 35 37 39 41 42 41 40 41 43 43 43 44 43 43 43 45 44 46 49 49 47 44 43 44 44 45 44 43 43 42 40 38 36 34 32 32 33 34 33 32 29 27 31 35 39 49 58 59 58 58 55 55 55 58 63 67 69 71 70 65 60 52 46 43
38 38 39 38 38 35 33 34 35 35 35 35 36 34 32 33 33 32 33 34 33 34 36 39 41 42 43 42 42 43 43 45 46 44 44 45 48 47 48 52 51 49 48 46 45 44 43 41 41 40 38 38 37 36 33 32 32 33 34 31 28 25 24 26 28 29 32 40 45 49 51 49 50 50 49 53 59 65 70 72 72 70 65 56 49
40 40 40 38 36 35 35 35 35 37 37 37 38 36 33 35 35 34 34 35 35 34 36 39 41 42 43 43 44 45 45 48 48 47 48 47 47 47 48 51 51 49 49 47 45 44 42 41 41 39 38 39 39 36 34 33 32 32 31 28 25 24 25 26 25 24 23 25 30 36 41 42 43 46 46 47 50 56 62 69 72 73 73 69 61
42 41 43 40 36 36 37 36 36 39 40 39 40 38 35 36 38 37 37 39 38 37 37 38 41 42 42 44 46 46 48 50 50 50 51 48 46 47 49 49 49 49 48 47 46 44 44 44 43 42 43 42 40 37 35 33 32 31 27 24 26 25 25 26 25 24 23 22 24 26 31 33 35 39 43 45 46 48 53 59 65 70 74 75 72
42 41 42 40 36 37 38 37 37 39 41 40 40 40 36 37 39 38 38 39 39 41 40 40 42 42 40 42 44 45 47 49 49 50 50 47 45 45 46 46 47 48 47 47 47 46 46 46 47 47 48 46 42 40 37 34 34 31 24 23 28 27 26 26 26 25 24 23 23 24 29 31 32 34 37 40 42 44 47 51 55 61 65 70 73
41 40 39 37 35 36 38 38 38 38 40 40 39 39 35 35 38 38 37 39 40 43 44 43 42 42 40 38 41 43 45 48 49 49 48 46 44 44 44 44 47 47 47 48 48 47 47 46 48 50 50 48 46 43 39 36 36 31 22 22 29 30 27 26 27 26 24 24 25 26 29 30 30 32 33 35 37 39 42 45 49 54 58 62 65
40 40 37 36 36 36 38 39 39 38 38 37 37 37 34 34 37 38 37 38 40 44 46 46 45 45 43 40 40 41 42 47 47 46 46 45 45 44 43 45 47 47 47 48 47 47 47 47 48 50 50 49 47 44 41 38 36 31 21 21 29 30 28 28 28 27 23 22 25 27 28 30 32 33 33 32 32 35 38 39 41 48 57 62 63
39 39 37 36 37 37 38 38 37 36 35 34 36 36 36 35 38 39 40 39 40 43 45 46 48 48 47 45 44 39 38 42 43 43 42 43 44 44 44 46 47 47 46 47 47 46 46 48 48 50 51 48 45 44 42 38 34 30 21 19 27 29 29 31 30 27 23 21 25 27 29 30 33 34 33 32 30 31 35 36 36 41 50 55 59
38 39 37 36 38 37 36 35 34 33 32 32 35 36 36 36 38 39 40 40 40 42 43 43 46 48 48 49 47 42 39 39 40 42 40 41 42 42 45 46 46 46 46 46 47 47 47 48 47 48 50 46 44 44 41 35 32 27 18 18 25 26 29 31 29 28 25 24 28 29 28 28 29 32 34 32 31 31 31 33 33 38 44 46 49
37 37 36 37 37 36 34 32 30 29 29 30 32 35 36 36 36 37 37 39 39 42 42 40 42 45 46 49 48 45 44 41 41 42 40 40 39 40 43 44 46 47 47 47 47 48 48 46 44 44 45 44 43 41 37 33 30 24 17 18 22 22 26 29 28 28 26 26 30 32 31 30 28 29 32 31 30 31 30 29 29 33 40 40 40
35 35 35 36 35 34 32 29 27 27 28 28 29 32 35 35 35 36 35 36 38 39 40 40 39 41 44 47 48 47 46 43 43 44 41 41 40 40 43 45 48 48 47 47 47 48 48 47 45 42 42 44 43 38 35 33 28 21 18 21 22 21 24 27 29 30 28 28 31 34 35 35 34 32 32 32 32 32 30 28 26 26 30 32 33
34 33 34 34 33 32 32 30 27 27 27 28 31 31 33 34 35 36 35 36 38 38 39 40 40 42 44 46 48 49 49 47 45 44 42 41 41 41 41 42 44 46 48 48 47 49 50 49 47 42 42 44 41 36 34 31 24 20 20 21 22 22 25 28 32 32 30 30 32 35 37 37 38 38 39 38 37 37 34 32 29 26 27 29 30
33 32 32 32 31 31 31 31 28 26 26 29 33 32 31 32 33 36 37 37 38 38 38 41 42 44 46 48 49 51 51 50 47 44 41 39 38 38 38 39 40 42 44 45 46 48 50 49 45 42 43 43 39 34 31 25 21 20 19 21 22 23 25 28 32 33 31 32 33 36 38 38 37 38 42 43 43 45 45 42 37 33 32 33 32
33 32 31 31 31 30 30 31 30 27 26 28 33 33 31 32 32 35 38 38 38 38 37 40 42 44 45 47 49 50 49 48 46 44 41 38 37 38 37 37 39 41 40 39 42 44 46 46 43 43 43 39 34 30 23 18 18 19 19 22 23 22 23 25 30 33 34 34 34 35 37 37 36 35 38 41 42 45 48 48 45 42 40 38 36
30 30 30 30 30 29 29 30 30 29 27 27 30 33 32 32 32 34 37 37 36 35 34 37 40 40 42 42 44 46 47 46 44 42 41 39 37 37 37 36 37 39 38 38 40 41 43 44 45 46 40 32 26 21 17 17 20 20 21 24 25 23 21 23 28 32 34 35 35 34 33 33 35 36 36 36 36 38 42 45 45 44 42 41 40
27 28 28 29 28 29 29 29 29 31 29 26 27 30 32 32 31 32 34 35 34 33 32 35 37 37 39 38 38 41 43 43 42 41 40 39 38 36 35 35 36 37 37 37 38 40 41 42 44 42 32 22 17 17 19 22 22 20 22 25 25 23 21 24 30 32 33 35 36 34 30 30 32 34 35 34 34 35 37 38 38 39 39 39 40
25 26 27 28 28 28 29 28 27 29 29 26 25 26 29 29 29 29 31 31 32 30 30 33 35 36 37 37 36 38 40 41 42 41 39 38 36 35 35 36 37 36 35 35 34 35 36 38 37 29 21 15 14 19 23 23 22 21 23 24 24 23 23 28 32 34 35 34 34 33 32 33 32 30 31 33 35 35 32 31 31 32 33 33 35
23 24 26 27 27 28 28 27 26 27 28 27 26 25 25 25 25 25 26 27 28 27 27 29 32 33 34 34 35 37 39 41 42 42 41 39 36 33 32 33 35 35 33 31 30 30 30 30 26 18 15 15 17 21 23 21 21 24 24 24 27 28 27 29 33 37 38 34 31 31 34 37 34 29 28 30 33 34 30 26 25 26 27 28 29
22 23 25 26 27 26 26 26 26 25 26 27 26 26 25 24 24 24 24 24 24 25 25 26 29 32 33 33 34 37 39 41 42 41 40 42 38 32 29 30 32 31 28 26 26 25 24 22 18 15 15 19 22 22 22 20 20 23 23 24 29 31 30 32 36 39 36 35 37 36 35 35 33 30 27 26 28 30 29 25 23 22 23 24 25
21 22 22 24 25 24 24 25 25 25 25 26 26 26 26 25 25 26 25 24 25 26 28 29 31 35 38 37 36 37 39 40 41 40 39 39 35 29 28 29 28 25 24 23 22 21 20 17 16 18 19 22 24 23 24 22 20 22 24 25 28 30 32 36 39 39 35 38 42 38 35 33 32 32 27 23 23 25 27 25 21 20 19 19 20
20 21 21 22 22 23 23 24 24 24 25 26 27 27 26 25 25 28 27 27 30 32 33 34 36 39 41 41 39 37 37 39 40 40 37 33 28 26 27 25 22 20 20 20 21 20 19 17 18 22 22 24 25 24 25 24 22 22 22 24 28 30 33 37 39 38 37 39 38 34 33 32 31 32 29 26 25 24 25 23 20 18 18 17 17
20 20 21 21 22 23 23 24 24 25 25 25 26 27 26 24 24 27 26 28 33 34 35 36 38 39 41 41 39 36 37 40 42 40 35 30 26 25 23 20 19 18 19 20 22 21 19 20 23 24 23 24 27 26 26 25 22 21 19 20 25 27 29 32 36 38 37 37 38 37 35 31 29 30 29 29 28 26 24 23 21 21 21 19 17
20 20 21 21 22 23 24 24 24 24 25 25 25 25 25 24 23 23 24 26 30 34 35 36 37 38 38 39 38 37 38 40 39 35 31 28 25 23 21 20 20 20 20 21 22 22 24 26 28 27 25 25 28 27 25 25 24 24 21 19 22 24 24 26 31 37 38 38 40 40 36 31 28 28 28 28 27 27 26 24 24 25 24 21 20
21 21 21 22 22 23 24 25 24 24 24 24 24 24 24 24 23 23 23 24 26 31 33 34 36 36 36 37 39 39 39 36 35 31 28 27 24 22 22 23 23 24 24 24 25 27 31 33 33 31 27 27 30 30 27 27 28 28 26 23 23 24 25 25 26 28 32 37 39 39 37 32 28 28 27 27 26 26 27 26 27 26 25 24 25
21 21 22 22 22 23 24 24 25 24 24 24 24 24 23 23 23 22 22 22 25 28 30 31 33 33 35 38 40 39 35 32 32 29 27 26 25 24 25 24 25 27 26 26 28 31 36 39 38 36 33 31 34 34 34 35 35 34 32 30 28 27 27 26 25 24 25 28 31 36 37 33 31 31 28 28 27 25 27 27 28 29 29 29 29
22 22 21 22 22 22 23 24 24 24 24 24 23 23 22 21 21 21 19 20 24 26 27 29 31 33 36 38 36 35 34 31 29 29 30 29 28 27 27 27 28 30 32 33 36 38 41 43 41 40 39 37 37 37 37 39 39 38 38 37 33 31 30 29 28 28 27 28 27 30 34 31 32 34 32 30 28 27 30 31 30 32 33 35 35
25 24 23 22 22 22 23 24 24 24 24 24 23 22 21 20 19 19 18 18 22 24 25 29 31 34 36 34 31 31 32 31 30 33 36 34 33 32 32 32 33 37 41 43 45 46 47 46 45 45 45 44 45 44 43 45 44 41 40 40 39 38 36 35 34 33 32 33 32 32 33 30 30 33 33 32 31 32 36 37 37 38 38 39 40